Tracking 25378 objects as of 22-Jan-2022
HD Live streaming from Space Station
objects crossing your sky now

SYRACUSE 4A

Track SYRACUSE 4A now!


NORAD ID: 49333
Int'l Code: 2021-095B
Perigee: 6,121.5 km
Apogee: 42,426.3 km
Inclination: 4.4 °
Period: 889.8 minutes
Semi major axis: 30644 km
RCS: Unknown
Launch date: October 24, 2021
Source: France (FR)
Launch site: FRENCH GUIANA (FRGUI)
aabbcc
Your satellite tracking list
Your tracking list is empty




NASA's NSSDC Master Catalog

Two Line Element Set (TLE):
1 49333U 21095B   21362.76331862 -.00000113  00000-0  00000-0 0  9995
2 49333   4.3577 253.4579 5923456 193.7864  36.4977  1.61832280  1320
Source of the keplerian elements: AFSPC